Regional Weather Roundup
Issued by NWS

Home | Current Version | Previous Version | Graphics & Text | Print | Product List | Glossary Off
Versions: 1 2 3 4 5 6 7 8 9 10 11 12 13 14 15 16 17 18 19 20 21 22 23 24 25 26 27 28 29 30 31 32 33 34 35 36 37 38 39 40 41 42 43 44 45 46 47 48 49 50

000
ASUS43 KDTX 251810
RWRMI
MICHIGAN HOURLY REGIONAL WEATHER ROUNDUP
NATIONAL WEATHER SERVICE DETROIT/PONTIAC MI
100 PM EST THU DEC 25 2014

NOTE: "FAIR" INDICATES FEW OR NO CLOUDS BELOW 12,000 FEET WITH NO
SIGNIFICANT WEATHER AND/OR OBSTRUCTION TO VISIBILITY.

MIZ047>049-052>055-059>063-066>070-074>076-081>083-251900-
SOUTHEAST LOWER MICHIGAN

CITY           SKY/WX    TMP DP  RH WIND       PRES   REMARKS
ADRIAN         CLOUDY    36  29  75 W14G23    29.99R
6HR MIN TEMP:  36; 6HR MAX TEMP:  37; 6HR PCP: TRACE;

ALMA           CLOUDY    36  32  86 SW10G18   29.90R
ANN ARBOR      CLOUDY    38  31  76 W20G28    29.95R
BAD AXE        CLOUDY    38  31  78 W22G32    29.86R
6HR MIN TEMP:  34; 6HR MAX TEMP:  38;

DETROIT CITY   CLOUDY    41  29  62 W16G24    29.94R
6HR MIN TEMP:  39; 6HR MAX TEMP:  41; 6HR PCP: TRACE;

DETROIT        CLOUDY    39  31  72 SW17      29.96R
6HR MIN TEMP:  38; 6HR MAX TEMP:  40; 6HR PCP: TRACE;

FLINT          CLOUDY    39  30  70 W12       29.92R
6HR MIN TEMP:  37; 6HR MAX TEMP:  39; 6HR PCP: TRACE;

GROSSE ILE     CLOUDY    39  34  81 SW14G20   29.95R
HILLSDALE      CLOUDY    35  31  85 W13G22    29.97R
HOWELL         CLOUDY    36  31  83 SW17      29.92R
6HR MIN TEMP:  35; 6HR MAX TEMP:  36;


CITY           SKY/WX    TMP DP  RH WIND       PRES   REMARKS
JACKSON        CLOUDY    35  28  75 W13G24    29.95R
6HR MIN TEMP:  35; 6HR MAX TEMP:  36;

LAMBERTVILLE   CLOUDY    37  32  81 SW10G20   29.99R
LANSING        CLOUDY    36  29  75 SW20      29.93R
6HR MIN TEMP:  36; 6HR MAX TEMP:  37; 6HR PCP: TRACE;

LAPEER         NOT AVBL
MASON          CLOUDY    34  28  79 W9G25     29.94R
MONROE         CLOUDY    39  30  70 W18G29    29.96R
MT. CLEMENS    CLOUDY    39  34  81 W15       29.90S
6HR MIN TEMP:  37; 6HR MAX TEMP:  39; 6HR PCP:  0.01;

PONTIAC        CLOUDY    37  29  72 W13G22    29.91R
6HR MIN TEMP:  36; 6HR MAX TEMP:  37; 6HR PCP: TRACE;

PORT HOPE        N/A     39  29  67 W15G24    29.83R
6HR MIN TEMP:  35; 6HR MAX TEMP:  39;

PORT HURON     CLOUDY    37  32  81 W3        29.91R
TRI CITIES     CLOUDY    38  31  76 SW15G21   29.89R
6HR MIN TEMP:  36; 6HR MAX TEMP:  38;

YPSILANTI      CLOUDY    42  31  64 W15       29.95R
6HR MIN TEMP:  40; 6HR MAX TEMP:  43; 6HR PCP: TRACE;

$$
MIZ043>046-050>051-056>058-064>065-071>073-077>080-251900-
SOUTHWEST LOWER MICHIGAN

CITY           SKY/WX    TMP DP  RH WIND       PRES   REMARKS
BATTLE CREEK   CLOUDY    36  29  75 SW16      29.96R
6HR MIN TEMP:  35; 6HR MAX TEMP:  37;

BENTON HARBOR  CLOUDY    35  30  82 SW16      29.97S
6HR MIN TEMP:  34; 6HR MAX TEMP:  36;

BIG RAPIDS     CLOUDY    35  32  88 SW12G21   29.85S
6HR MIN TEMP:  34; 6HR MAX TEMP:  35;

COLDWATER      CLOUDY    34  30  85 MISG      29.98R
6HR MIN TEMP:  34; 6HR MAX TEMP:  36;

HOLLAND        CLOUDY    38  30  73 SW15G29   29.93F
6HR MIN TEMP:  37; 6HR MAX TEMP:  39;

GRAND RAPIDS   CLOUDY    36  30  79 SW18      29.92S
6HR MIN TEMP:  35; 6HR MAX TEMP:  37;

KALAMAZOO      CLOUDY    36  29  75 SW14      29.97S
6HR MIN TEMP:  35; 6HR MAX TEMP:  37;

MARSHALL       CLOUDY    34  29  83 SW10      29.96R
MUSKEGON       CLOUDY    37  29  72 W16G24    29.91F
6HR MIN TEMP:  37; 6HR MAX TEMP:  38;

$$
MIZ016>042-251900-
NORTHERN LOWER MICHIGAN

CITY           SKY/WX    TMP DP  RH WIND       PRES   REMARKS
ALPENA         CLOUDY    36  32  85 SW7       29.77R
6HR MIN TEMP:  33; 6HR MAX TEMP:  36; 6HR PCP: TRACE;

BEAVER ISLAND  CLOUDY    37  32  82 W16G26    29.74S
6HR MIN TEMP:  34; 6HR MAX TEMP:  37;

BELLAIRE       CLOUDY    38  29  71 SW10G16   29.78F
6HR MIN TEMP:  36; 6HR MAX TEMP:  38;

CADILLAC       CLOUDY    33  30  89 SW15      29.80R
CHARLEVOIX     CLOUDY    37  31  80 W17G26    29.79R
6HR MIN TEMP:  35; 6HR MAX TEMP:  37;

FRANKFORT      CLOUDY    37  31  81 W10G22    29.82R
GAYLORD        CLOUDY    33  29  85 W15       29.74R
6HR MIN TEMP:  31; 6HR MAX TEMP:  33; 6HR PCP: TRACE;

GRAYLING       CLOUDY    34  30  85 SW8       29.78S
6HR MIN TEMP:  33; 6HR MAX TEMP:  34;

HARBOR SPRINGS CLOUDY    37  31  81 SW15G28   29.74S
HOUGHTON LAKE  CLOUDY    34  28  79 W13       29.81R
6HR MIN TEMP:  32; 6HR MAX TEMP:  34; 6HR PCP: TRACE;

MANISTEE       CLOUDY    37  27  65 W14G21    29.85R
OSCODA         CLOUDY    37  31  77 W18G24    29.81R
PELLSTON       CLOUDY    37  29  72 W17G25    29.74R
6HR MIN TEMP:  35; 6HR MAX TEMP:  37; 6HR PCP: TRACE;

TRAVERSE CITY  CLOUDY    38  29  70 SW14G21   29.79S
6HR MIN TEMP:  35; 6HR MAX TEMP:  38;

$$
MIZ007>008-015-251900-
EASTERN UPPER MICHIGAN

CITY           SKY/WX    TMP DP  RH WIND       PRES   REMARKS
KINROSS        CLOUDY    36  32  87 W9        29.69R
6HR MIN TEMP:  32; 6HR MAX TEMP:  37;

MACKINAC ISLAN CLOUDY    36  32  87 W14G25    29.72R
6HR MIN TEMP:  33; 6HR MAX TEMP:  36;

NEWBERRY       CLOUDY    34  30  86 W12       29.69R
6HR MIN TEMP:  32; 6HR MAX TEMP:  34;

S. S. MARIE    CLOUDY    36  29  75 W17G25    29.67R
6HR MIN TEMP:  33; 6HR MAX TEMP:  37; 6HR PCP:  0.01;

$$
MIZ004>006-011>014-085-251900-
CENTRAL UPPER MICHIGAN

CITY           SKY/WX    TMP DP  RH WIND       PRES   REMARKS
MANISTIQUE     CLOUDY    36  32  87 SW10      29.72S
6HR MIN TEMP:  32; 6HR MAX TEMP:  36;

ESCANABA       CLOUDY    36  28  75 SW12G17   29.72S
6HR MIN TEMP:  32; 6HR MAX TEMP:  36;

MENOMINEE      CLOUDY    36  28  75 W12G17    29.77S
6HR MIN TEMP:  32; 6HR MAX TEMP:  36;

SAWYER-GWINN   CLOUDY    34  30  86 SW12      29.68R
$$
MIZ001>003-009>011-084-251900-
WESTERN UPPER MICHIGAN

CITY           SKY/WX    TMP DP  RH WIND       PRES   REMARKS
IRON MOUNTAIN  CLOUDY    34  28  79 SW10      29.71R
6HR MIN TEMP:  32; 6HR MAX TEMP:  34;

HOUGHTON       CLOUDY    33  29  85 W13       29.63S
6HR MIN TEMP:  32; 6HR MAX TEMP:  33; 6HR PCP: TRACE;

COPPER HARBOR    N/A     36  31  82 NW8       29.63S
6HR MIN TEMP:  34; 6HR MAX TEMP:  37; 6HR PCP:  0.03;

IRONWOOD       CLOUDY    32  28  86 SW10      29.66R
6HR MIN TEMP:  30; 6HR MAX TEMP:  32;

$$

ABBREVIATIONS USED IN REMARKS
   TC - TEMPERATURE IN CELSIUS
  WCI - WIND CHILL INDEX
   HX - HEAT INDEX
  VSB - VISIBILITY




USA.gov is the U.S. government's official web portal to all federal, state and local government web resources and services.